Time,TemperatureF,DewpointF,PressureIn,WindDirection,WindDirectionDegrees,WindSpeedMPH,WindSpeedGustMPH,Humidity,HourlyPrecipIn,Conditions,Clouds,dailyrainin,SolarRadiationWatts/m^2,SoftwareType,DateUTC
2013-07-12 00:12:00,73.0,45.0,-100.00,NNW,341,1.0,5.0,37,0.00,,,0.00,0.000000,,2013-07-12 07:12:00,
2013-07-12 00:22:00,73.0,45.0,-100.00,NNW,341,1.0,5.0,37,0.00,,,0.00,0.000000,,2013-07-12 07:22:00,
2013-07-12 00:32:00,73.0,45.0,-100.00,NNW,341,1.0,5.0,37,0.00,,,0.00,0.000000,,2013-07-12 07:32:00,
2013-07-12 00:43:00,73.0,45.0,-100.00,NNW,341,1.0,5.0,37,0.00,,,0.00,0.000000,,2013-07-12 07:43:00,
2013-07-12 00:51:00,73.0,44.0,-100.00,SE,142,3.0,15.0,35,0.00,,,0.00,0.000000,,2013-07-12 07:51:00,
2013-07-12 01:21:00,73.0,44.0,-100.00,SE,142,3.0,15.0,35,0.00,,,0.00,0.000000,,2013-07-12 08:21:00,
2013-07-12 01:32:00,73.0,44.0,-100.00,SE,142,3.0,15.0,35,0.00,,,0.00,0.000000,,2013-07-12 08:32:00,
2013-07-12 01:42:00,73.0,44.0,-100.00,SE,142,3.0,15.0,35,0.00,,,0.00,0.000000,,2013-07-12 08:42:00,
2013-07-12 01:51:00,70.0,45.0,-100.00,WNW,286,2.0,15.0,41,0.00,,,0.00,0.000000,,2013-07-12 08:51:00,
2013-07-12 02:12:00,70.0,45.0,-100.00,WNW,286,2.0,15.0,41,0.00,,,0.00,0.000000,,2013-07-12 09:12:00,
2013-07-12 02:22:00,70.0,45.0,-100.00,WNW,286,2.0,15.0,41,0.00,,,0.00,0.000000,,2013-07-12 09:22:00,
2013-07-12 02:32:00,70.0,45.0,-100.00,WNW,286,2.0,15.0,41,0.00,,,0.00,0.000000,,2013-07-12 09:32:00,
2013-07-12 02:42:00,70.0,45.0,-100.00,WNW,286,2.0,15.0,41,0.00,,,0.00,0.000000,,2013-07-12 09:42:00,
2013-07-12 02:51:00,68.0,46.0,-100.00,ESE,120,4.0,7.0,46,0.00,,,0.00,0.000000,,2013-07-12 09:51:00,
2013-07-12 03:22:00,68.0,46.0,-100.00,ESE,120,4.0,7.0,46,0.00,,,0.00,0.000000,,2013-07-12 10:22:00,
2013-07-12 03:33:00,68.0,46.0,-100.00,ESE,120,4.0,7.0,46,0.00,,,0.00,0.000000,,2013-07-12 10:33:00,
2013-07-12 03:42:00,68.0,46.0,-100.00,ESE,120,4.0,7.0,46,0.00,,,0.00,0.000000,,2013-07-12 10:42:00,
2013-07-12 03:51:00,69.0,46.0,-100.00,SE,126,4.0,6.0,43,0.00,,,0.00,0.000000,,2013-07-12 10:51:00,
2013-07-12 04:11:00,69.0,46.0,-100.00,SE,126,4.0,6.0,43,0.00,,,0.00,0.000000,,2013-07-12 11:11:00,
2013-07-12 04:22:00,69.0,46.0,-100.00,SE,126,4.0,6.0,43,0.00,,,0.00,0.000000,,2013-07-12 11:22:00,
2013-07-12 04:32:00,69.0,46.0,-100.00,SE,126,4.0,6.0,43,0.00,,,0.00,0.000000,,2013-07-12 11:32:00,
2013-07-12 04:43:00,69.0,46.0,-100.00,SE,126,4.0,6.0,43,0.00,,,0.00,0.000000,,2013-07-12 11:43:00,
2013-07-12 04:51:00,69.0,46.0,-100.00,South,174,0.0,5.0,44,0.00,,,0.00,0.000000,,2013-07-12 11:51:00,
2013-07-12 05:11:00,69.0,46.0,-100.00,South,174,0.0,5.0,44,0.00,,,0.00,0.000000,,2013-07-12 12:11:00,
2013-07-12 05:22:00,69.0,46.0,-100.00,South,174,0.0,5.0,44,0.00,,,0.00,0.000000,,2013-07-12 12:22:00,
2013-07-12 05:32:00,69.0,46.0,-100.00,South,174,0.0,5.0,44,0.00,,,0.00,0.000000,,2013-07-12 12:32:00,
2013-07-12 05:43:00,69.0,46.0,-100.00,South,174,0.0,5.0,44,0.00,,,0.00,0.000000,,2013-07-12 12:43:00,
2013-07-12 05:51:00,67.0,46.0,-100.00,South,170,1.0,9.0,47,0.00,,,0.00,0.000000,,2013-07-12 12:51:00,
2013-07-12 06:22:00,67.0,46.0,-100.00,South,170,1.0,9.0,47,0.00,,,0.00,0.000000,,2013-07-12 13:22:00,
2013-07-12 06:32:00,67.0,46.0,-100.00,South,170,1.0,9.0,47,0.00,,,0.00,0.000000,,2013-07-12 13:32:00,
2013-07-12 06:43:00,67.0,46.0,-100.00,South,170,1.0,9.0,47,0.00,,,0.00,0.000000,,2013-07-12 13:43:00,
2013-07-12 06:51:00,69.0,45.0,-100.00,WSW,237,0.0,6.0,42,0.00,,,0.00,59.000000,,2013-07-12 13:51:00,
2013-07-12 07:22:00,69.0,45.0,-100.00,WSW,237,0.0,6.0,42,0.00,,,0.00,59.000000,,2013-07-12 14:22:00,
2013-07-12 07:32:00,69.0,45.0,-100.00,WSW,237,0.0,6.0,42,0.00,,,0.00,59.000000,,2013-07-12 14:32:00,
2013-07-12 07:43:00,69.0,45.0,-100.00,WSW,237,0.0,6.0,42,0.00,,,0.00,59.000000,,2013-07-12 14:43:00,
2013-07-12 07:51:00,78.0,44.0,-100.00,East,90,3.0,7.0,30,0.00,,,0.00,314.000000,,2013-07-12 14:51:00,
2013-07-12 08:11:00,78.0,44.0,-100.00,East,90,3.0,7.0,30,0.00,,,0.00,314.000000,,2013-07-12 15:11:00,
2013-07-12 08:22:00,78.0,44.0,-100.00,East,90,3.0,7.0,30,0.00,,,0.00,314.000000,,2013-07-12 15:22:00,
2013-07-12 08:33:00,78.0,44.0,-100.00,East,90,3.0,7.0,30,0.00,,,0.00,314.000000,,2013-07-12 15:33:00,
2013-07-12 08:43:00,78.0,44.0,-100.00,East,90,3.0,7.0,30,0.00,,,0.00,314.000000,,2013-07-12 15:43:00,
2013-07-12 08:51:00,78.0,45.0,-100.00,ESE,119,6.0,10.0,31,0.00,,,0.00,415.000000,,2013-07-12 15:51:00,
2013-07-12 09:22:00,78.0,45.0,-100.00,ESE,119,6.0,10.0,31,0.00,,,0.00,415.000000,,2013-07-12 16:22:00,
2013-07-12 09:32:00,78.0,45.0,-100.00,ESE,119,6.0,10.0,31,0.00,,,0.00,415.000000,,2013-07-12 16:32:00,
2013-07-12 09:42:00,78.0,45.0,-100.00,ESE,119,6.0,10.0,31,0.00,,,0.00,415.000000,,2013-07-12 16:42:00,
2013-07-12 09:51:00,80.0,43.0,-100.00,SE,130,8.0,12.0,27,0.00,,,0.00,500.000000,,2013-07-12 16:51:00,
2013-07-12 10:23:00,80.0,43.0,-100.00,SE,130,8.0,12.0,27,0.00,,,0.00,500.000000,,2013-07-12 17:23:00,
2013-07-12 10:34:00,80.0,43.0,-100.00,SE,130,8.0,12.0,27,0.00,,,0.00,500.000000,,2013-07-12 17:34:00,
2013-07-12 10:44:00,80.0,43.0,-100.00,SE,130,8.0,12.0,27,0.00,,,0.00,500.000000,,2013-07-12 17:44:00,
2013-07-12 10:51:00,82.0,39.0,-100.00,SE,127,10.0,15.0,22,0.00,,,0.00,467.000000,,2013-07-12 17:51:00,
2013-07-12 11:13:00,82.0,39.0,-100.00,SE,127,10.0,15.0,22,0.00,,,0.00,467.000000,,2013-07-12 18:13:00,
2013-07-12 11:24:00,82.0,39.0,-100.00,SE,127,10.0,15.0,22,0.00,,,0.00,467.000000,,2013-07-12 18:24:00,
2013-07-12 11:34:00,82.0,39.0,-100.00,SE,127,10.0,15.0,22,0.00,,,0.00,467.000000,,2013-07-12 18:34:00,
2013-07-12 11:45:00,82.0,39.0,-100.00,SE,127,10.0,15.0,22,0.00,,,0.00,467.000000,,2013-07-12 18:45:00,
2013-07-12 11:51:00,86.0,36.0,-100.00,South,169,6.0,13.0,17,0.00,,,0.00,576.000000,,2013-07-12 18:51:00,
2013-07-12 12:22:00,86.0,36.0,-100.00,South,169,6.0,13.0,17,0.00,,,0.00,576.000000,,2013-07-12 19:22:00,
2013-07-12 12:44:00,86.0,36.0,-100.00,South,169,6.0,13.0,17,0.00,,,0.00,576.000000,,2013-07-12 19:44:00,
2013-07-12 12:51:00,91.0,37.0,-100.00,SSW,209,6.0,13.0,15,0.00,,,0.00,895.000000,,2013-07-12 19:51:00,
2013-07-12 13:22:00,91.0,37.0,-100.00,SSW,209,6.0,13.0,15,0.00,,,0.00,895.000000,,2013-07-12 20:22:00,
2013-07-12 13:33:00,91.0,37.0,-100.00,SSW,209,6.0,13.0,15,0.00,,,0.00,895.000000,,2013-07-12 20:33:00,
2013-07-12 13:43:00,91.0,37.0,-100.00,SSW,209,6.0,13.0,15,0.00,,,0.00,895.000000,,2013-07-12 20:43:00,
2013-07-12 14:14:00,92.0,36.0,-100.00,South,169,10.0,17.0,14,0.00,,,0.00,1068.000000,,2013-07-12 21:14:00,
2013-07-12 14:24:00,92.0,36.0,-100.00,South,169,10.0,17.0,14,0.00,,,0.00,1068.000000,,2013-07-12 21:24:00,
2013-07-12 14:33:00,92.0,36.0,-100.00,South,169,10.0,17.0,14,0.00,,,0.00,1068.000000,,2013-07-12 21:33:00,
2013-07-12 14:51:00,89.0,32.0,-100.00,South,172,10.0,20.0,13,0.00,,,0.00,716.000000,,2013-07-12 21:51:00,
2013-07-12 15:22:00,89.0,32.0,-100.00,South,172,10.0,20.0,13,0.00,,,0.00,716.000000,,2013-07-12 22:22:00,
2013-07-12 15:33:00,89.0,32.0,-100.00,South,172,10.0,20.0,13,0.00,,,0.00,716.000000,,2013-07-12 22:33:00,
2013-07-12 15:51:00,92.0,28.0,-100.00,SSE,163,11.0,21.0,10,0.00,,,0.00,846.000000,,2013-07-12 22:51:00,
2013-07-12 16:33:00,92.0,28.0,-100.00,SSE,163,11.0,21.0,10,0.00,,,0.00,846.000000,,2013-07-12 23:33:00,
2013-07-12 16:42:00,92.0,28.0,-100.00,SSE,163,11.0,21.0,10,0.00,,,0.00,846.000000,,2013-07-12 23:42:00,
2013-07-12 17:24:00,91.0,24.0,-100.00,South,170,10.0,21.0,9,0.00,,,0.00,712.000000,,2013-07-13 00:24:00,
2013-07-12 17:32:00,91.0,24.0,-100.00,South,170,10.0,21.0,9,0.00,,,0.00,712.000000,,2013-07-13 00:32:00,
2013-07-12 17:44:00,91.0,24.0,-100.00,South,170,10.0,21.0,9,0.00,,,0.00,712.000000,,2013-07-13 00:44:00,
2013-07-12 17:51:00,91.0,24.0,-100.00,South,175,11.0,21.0,9,0.00,,,0.00,511.000000,,2013-07-13 00:51:00,
2013-07-12 18:23:00,91.0,24.0,-100.00,South,175,11.0,21.0,9,0.00,,,0.00,511.000000,,2013-07-13 01:23:00,
2013-07-12 18:34:00,91.0,24.0,-100.00,South,175,11.0,21.0,9,0.00,,,0.00,511.000000,,2013-07-13 01:34:00,
2013-07-12 18:44:00,91.0,24.0,-100.00,South,175,11.0,21.0,9,0.00,,,0.00,511.000000,,2013-07-13 01:44:00,
2013-07-12 18:51:00,87.0,41.0,-100.00,South,172,13.0,28.0,20,0.00,,,0.00,46.000000,,2013-07-13 01:51:00,
2013-07-12 19:51:00,86.0,11.0,-100.00,West,266,13.0,25.0,6,0.00,,,0.00,24.000000,,2013-07-13 02:51:00,
2013-07-12 20:34:00,86.0,11.0,-100.00,West,266,13.0,25.0,6,0.00,,,0.00,24.000000,,2013-07-13 03:34:00,
2013-07-12 20:44:00,86.0,11.0,-100.00,West,266,13.0,25.0,6,0.00,,,0.00,24.000000,,2013-07-13 03:44:00,
2013-07-12 20:51:00,81.0,24.0,-100.00,WSW,237,10.0,20.0,12,0.00,,,0.00,3.000000,,2013-07-13 03:51:00,
2013-07-12 21:22:00,81.0,24.0,-100.00,WSW,237,10.0,20.0,12,0.00,,,0.00,3.000000,,2013-07-13 04:22:00,
2013-07-12 21:32:00,81.0,24.0,-100.00,WSW,237,10.0,20.0,12,0.00,,,0.00,3.000000,,2013-07-13 04:32:00,
2013-07-12 21:43:00,81.0,24.0,-100.00,WSW,237,10.0,20.0,12,0.00,,,0.00,3.000000,,2013-07-13 04:43:00,
2013-07-12 21:51:00,79.0,27.0,-100.00,West,260,8.0,22.0,15,0.00,,,0.00,0.000000,,2013-07-13 04:51:00,
2013-07-12 22:42:00,79.0,27.0,-100.00,West,260,8.0,22.0,15,0.00,,,0.00,0.000000,,2013-07-13 05:42:00,
2013-07-12 22:51:00,78.0,30.0,-100.00,WSW,252,9.0,16.0,17,0.00,,,0.00,0.000000,,2013-07-13 05:51:00,
2013-07-12 23:22:00,78.0,30.0,-100.00,WSW,252,9.0,16.0,17,0.00,,,0.00,0.000000,,2013-07-13 06:22:00,
2013-07-12 23:32:00,78.0,30.0,-100.00,WSW,252,9.0,16.0,17,0.00,,,0.00,0.000000,,2013-07-13 06:32:00,
2013-07-12 23:43:00,78.0,30.0,-100.00,WSW,252,9.0,16.0,17,0.00,,,0.00,0.000000,,2013-07-13 06:43:00,
2013-07-12 23:51:00,77.0,30.0,-100.00,WSW,241,11.0,18.0,18,0.00,,,0.00,0.000000,,2013-07-13 06:51:00,